Location: Czekan�w
(50.3488°N, 18.7344°E)
Time: 16:50:59
(UTC+00:00)

SL-16 R/B - Pass Details

Date: 17 February 2020
Orbit: 843 x 847 km, 71.0° (Epoch: 07 April)

Event Time Altitude Azimuth Distance (km) Brightness Sun altitude
Exits shadow 03:00:22 43° 164° (SSE) 1,166 2.8 -28.1°
Maximum altitude 03:01:53 58° 113° (ESE) 985 2.7 -27.9°
Drops below altitude 10° 03:07:27 10° 35° (NE) 2,476 5.2 -27.0°
Sets 03:09:56 0° 32° (NNE) 3,415 6.0 -26.7°
